Friday Harbor, WA

12:25 AM PST on November 21, 2019 (GMT -0800)
Friday Harbor

Weather History for KFHR - October, 2019

Change the Weather History Date:

Wednesday, October 23, 2019

  Actual Average Record
Temperature  
Mean Temperature 48 °F -  
Max Temperature 53 °F 52 °F 68 °F (2007)
Min Temperature 42 °F 40 °F 36 °F (2006)
Degree Days  
Heating Degree Days 18    
Moisture  
Dew Point 44 °F    
Average Humidity 89    
Maximum Humidity 100    
Minimum Humidity 72    
Precipitation  
Precipitation 0.00 in - - ()
Sea Level Pressure  
Sea Level Pressure 30.50 in    
Wind  
Wind Speed 2 mph (North)    
Max Wind Speed 7 mph    
Max Gust Speed -    
Visibility 10 miles    
Events      
Averages and records for this station are not official NWS values.
T = Trace of Precipitation, MM = Missing Value Source: NWS Daily Summary

Daily Weather History Graph

Daily Weather History Graph

Search for Another Location

Airport or City:

Astronomy

Oct. 23, 2019 Rise Set
Actual Time 7:44 AM PDT 6:07 PM PDT
Civil Twilight 7:11 AM PDT 6:40 PM PDT
Nautical Twilight 6:35 AM PDT 7:16 PM PDT
Astronomical Twilight 5:59 AM PDT 7:52 PM PDT
Moon 1:33 AM PDT (10/23) 4:33 PM PDT (10/23)
Length of Visible Light 11h 28m
Length of Day
10h 23m
Waning Crescent, 25% of the Moon is Illuminated
Oct 23
Waning Crescent
Oct 27
New
Nov 4
First Quarter
Nov 12
Full
Nov 19
Last Quarter

Hourly Weather History & Observations

Time (PDT) Temp. Windchill Dew Point Humidity Pressure Visibility Wind Dir Wind Speed Gust Speed Precip Events Conditions
12:53 AM 44.1 °F - 44.1 °F 100% 30.47 in 10.0 mi Calm Calm - N/A   Partly Cloudy
1:53 AM 44.1 °F - 43.0 °F 96% 30.46 in 8.0 mi Calm Calm - N/A   Clear
2:53 AM 42.1 °F - 42.1 °F 100% 30.48 in 10.0 mi Calm Calm - N/A   Clear
3:53 AM 43.0 °F - 42.1 °F 97% 30.48 in 10.0 mi Calm Calm - N/A   Clear
4:53 AM 42.1 °F - 41.0 °F 96% 30.48 in 10.0 mi Calm Calm - N/A   Clear
5:53 AM 43.0 °F 40.3 °F 42.1 °F 97% 30.49 in 10.0 mi Variable 4.6 mph - N/A   Clear
6:35 AM 43.0 °F 41.3 °F 42.1 °F 97% 30.50 in 10.0 mi WNW 3.5 mph - N/A   Mostly Cloudy
6:53 AM 45.0 °F 43.5 °F 43.0 °F 93% 30.50 in 10.0 mi North 3.5 mph - N/A   Scattered Clouds
7:53 AM 43.0 °F 41.3 °F 42.1 °F 97% 30.51 in 10.0 mi NW 3.5 mph - N/A   Scattered Clouds
8:07 AM 43.0 °F 41.3 °F 42.1 °F 97% 30.52 in 10.0 mi WNW 3.5 mph - N/A   Mostly Cloudy
8:53 AM 46.0 °F - 45.0 °F 96% 30.53 in 10.0 mi Calm Calm - N/A   Overcast
9:03 AM 46.0 °F 44.8 °F 45.0 °F 96% 30.53 in 10.0 mi North 3.5 mph - N/A   Overcast
9:53 AM 48.9 °F - 46.9 °F 93% 30.54 in 10.0 mi NNE 3.5 mph - N/A   Overcast
10:53 AM 51.1 °F - 46.0 °F 83% 30.54 in 10.0 mi NE 4.6 mph - N/A   Mostly Cloudy
11:14 AM 53.1 °F - 46.9 °F 80% 30.55 in 10.0 mi North 6.9 mph - N/A   Mostly Cloudy
11:27 AM 51.1 °F - 45.0 °F 80% 30.54 in 10.0 mi North 4.6 mph - N/A   Overcast
11:53 AM 51.1 °F - 45.0 °F 80% 30.55 in 10.0 mi Variable 3.5 mph - N/A   Mostly Cloudy
12:53 PM 51.1 °F - 45.0 °F 80% 30.54 in 10.0 mi NNE 5.8 mph - N/A   Mostly Cloudy
1:40 PM 52.0 °F - 45.0 °F 77% 30.52 in 10.0 mi NNE 4.6 mph - N/A   Scattered Clouds
1:48 PM 53.6 °F - 44.6 °F 72% 30.52 in 10.0 mi North 3.5 mph - N/A   Mostly Cloudy
1:53 PM 53.1 °F - 45.0 °F 74% 30.53 in 10.0 mi Variable 4.6 mph - N/A   Mostly Cloudy
2:22 PM 52.0 °F - 45.0 °F 77% 30.52 in 10.0 mi North 5.8 mph - N/A   Scattered Clouds
2:53 PM 52.0 °F - 45.0 °F 77% 30.52 in 10.0 mi North 5.8 mph - N/A   Partly Cloudy
3:53 PM 51.1 °F - 45.0 °F 80% 30.51 in 10.0 mi North 4.6 mph - N/A   Clear
4:53 PM 51.1 °F - 45.0 °F 80% 30.51 in 10.0 mi Calm Calm - N/A   Clear
5:53 PM 48.9 °F - 45.0 °F 86% 30.49 in 10.0 mi Calm Calm - N/A   Clear
6:53 PM 48.9 °F - 44.1 °F 83% 30.49 in 10.0 mi Calm Calm - N/A   Clear
7:53 PM 46.0 °F - 44.1 °F 93% 30.47 in 10.0 mi Calm Calm - N/A   Mostly Cloudy
8:53 PM 46.0 °F - 44.1 °F 93% 30.47 in 10.0 mi Calm Calm - N/A   Overcast
9:53 PM 44.1 °F - 43.0 °F 96% 30.46 in 10.0 mi Calm Calm - N/A   Partly Cloudy
10:53 PM 44.1 °F - 43.0 °F 96% 30.46 in 10.0 mi Calm Calm - N/A   Overcast
11:53 PM 44.1 °F - 43.0 °F 96% 30.45 in 10.0 mi Calm Calm - N/A   Clear